Showing default

COSMOS 2442 (GLONASS), 33378

Orbit data source: Space-Track

COSMOS 2442 (GLONASS), 33378 is a Commonwealth of Independent States-origin payload satellite in MEO that was launched on Thu, 25 Sep 2008 UTC via a PROTON-M/DM-2 launch vehicle from the Tyuratam Missile And Space Complex (TTMTR). Payload-class satellites include a variety of spacecraft equipped with specific instruments for various scientific and technological missions. These include communications satellites like Starlink; space stations such as the ISS; scientific satellites like the Hubble; Earth observation satellites from companies like Planet Labs, Umbra, and HawkEye 360; GPS; miniature CubeSats for education and research; and military/defense satellites.

Loading next visibility...
Identifier
33378, 2008-046A
Orbit
MEO
Country
Flag of CISCIS
Related business
Manufacturer
Resehetnev ISS
Mission
Non-operational Defense Navigation
Bus & Motor
URAGAN, Unknown motor
Mass
1,450 kg wet, ~1,200 kg dry
Launch date (UTC)
2008-09-25 (18 years ago)
Launch vehicle
PROTON-M/DM-2
Launch site
Tyuratam Missile And Space Complex (TTMTR)
Object type
Payload
Rocket body
Debris
Shape & HBR
Cyl + 1 Ant + 2 Pan, 3.9 m
Radar Cross Section
8.467 m², Large (>1 m²)

Expand to show TLE details & history
Last TLE update: 1 week ago

TLE from 1 week ago
0 COSMOS 2442 (GLONASS)
1 33378U 08046A   26166.81961606 -.00000054  00000-0  00000-0 0  9990
2 33378  65.4641 314.9061 0016835 311.2114  60.7359  2.13108904137922
Epoch: 2026-06-15T19:40Z
TLE epoch observation values (Epoch: 2026-06-15T19:40:14.827Z)
Latitude
11.04116°
Longitude
120.82828°
Altitude
19,108.331 km
Speed
3.957 km/s
True Right ascension
21h 19m 57s
True Declination
11° 01' 23"
Sunlit
Object was in daylight at epoch
Visualization orbit readout
Latitude
Unknown
Longitude
Unknown
Altitude
Unknown
Speed
Unknown
Apparent Right ascension
Unknown
Apparent Declination
Unknown
Sunlit
N/A
Visualization observer readout
Local Sidereal Time
23:27:27
Azimuth
Unknown
Elevation
Unknown
Doppler factor
Unknown
Orbital elements
Apogee altitude
19,171.877 km
Perigee altitude
19,085.994 km
Semi-major axis
25,507.072 km
Eccentricity
0.00168
Inclination
65.4641°
RAAN
314.9061°
Arg. of periapsis
311.2114°
True anomaly
60.90437°
Mean anomaly
60.7359°
Eccentric anomaly
60.82012°
Mean motion
0.53279 °/min
Orbital period
675.69 mins
BSTAR
0
Loading maneuver chart data...
Computing Atmospheric mass density...
Loading historical data...
Loading historical data...
Loading historical data...
Loading historical data...
Loading historical data...
Loading historical data...
Loading historical data...

Documentation

Showing up to 5 results
|